Weather History for KPNE - July, 2013

Change the Weather History Date:

Saturday, July 6, 2013

  Actual Average (KTTN) Record (KTTN)
Temperature  
Mean Temperature 85 °F 75 °F  
Max Temperature 93 °F 85 °F 104 °F (2010)
Min Temperature 77 °F 66 °F 53 °F (1979)
Degree Days  
Heating Degree Days 0 0  
Month to date heating degree days 0  
Since 1 June heating degree days 24  
Since 1 July heating degree days 0  
Cooling Degree Days 20 10  
Month to date cooling degree days 59  
Year to date cooling degree days 306  
Since 1 June cooling degree days 249  
Growing Degree Days 35 (Base 50)    
Moisture  
Dew Point 72 °F    
Average Humidity 66    
Maximum Humidity 88    
Minimum Humidity 45    
Precipitation  
Precipitation 0.00 in 0.15 in 2.22 in (1901)
Month to date precipitation 0.96  
Year to date precipitation 22.89  
Sea Level Pressure  
Sea Level Pressure 30.12 in    
Wind  
Wind Speed 7 mph (WSW)    
Max Wind Speed 12 mph    
Max Gust Speed 21 mph    
Visibility 10 miles    
Events      
T = Trace of Precipitation, MM = Missing Value Source: NWS Daily Summary

Daily Weather History Graph

Daily Weather History Graph

Search for Another Location

Airport or City:

Trip Planner

Search our weather history database for the weather conditions in past years. The results will help you decide how hot, cold, wet, or windy it might be!

Date:

Astronomy

Jul. 06, 2013 Rise Set
Actual Time 5:37 AM EDT 8:31 PM EDT
Civil Twilight 5:05 AM EDT 9:04 PM EDT
Nautical Twilight 4:23 AM EDT 9:45 PM EDT
Astronomical Twilight 3:36 AM EDT 10:32 PM EDT
Moon 4:21 AM EDT (7/6) 7:11 PM EDT (7/6)
Length of Visible Light 15h 59m
Length of Day
14h 54m
Waning Crescent, 2% of the Moon is Illuminated
Jul 6
Waning Crescent
Jul 8
New
Jul 15
First Quarter
Jul 22
Full
Jul 29
Last Quarter

Hourly Weather History & Observations

Time (EDT) Temp. Heat Index Dew Point Humidity Pressure Visibility Wind Dir Wind Speed Gust Speed Precip Events Conditions
12:54 AM 80.1 °F 83.8 °F 72.0 °F 76% 30.17 in 10.0 mi SW 6.9 mph - N/A   Clear
1:54 AM 79.0 °F - 72.0 °F 79% 30.16 in 10.0 mi SSW 5.8 mph - N/A   Clear
2:54 AM 78.1 °F - 73.0 °F 84% 30.16 in 10.0 mi SW 5.8 mph - N/A   Clear
3:54 AM 78.1 °F - 73.0 °F 84% 30.16 in 10.0 mi SW 5.8 mph - N/A   Clear
4:54 AM 77.0 °F - 73.0 °F 88% 30.16 in 10.0 mi SW 4.6 mph - N/A   Clear
5:54 AM 77.0 °F - 73.0 °F 88% 30.16 in 9.0 mi SW 4.6 mph - N/A   Clear
6:54 AM 79.0 °F - 73.9 °F 84% 30.17 in 9.0 mi WSW 6.9 mph - N/A   Clear
7:54 AM 81.0 °F 86.2 °F 73.9 °F 79% 30.17 in 10.0 mi WSW 9.2 mph - N/A   Clear
8:54 AM 84.0 °F 91.2 °F 73.9 °F 72% 30.17 in 10.0 mi WSW 8.1 mph - N/A   Clear
9:54 AM 86.0 °F 93.0 °F 73.0 °F 65% 30.17 in 10.0 mi Variable 3.5 mph - N/A   Clear
10:54 AM 87.1 °F 94.5 °F 73.0 °F 63% 30.16 in 10.0 mi WSW 8.1 mph - N/A   Partly Cloudy
11:54 AM 89.1 °F 95.0 °F 71.1 °F 55% 30.15 in 10.0 mi Variable 4.6 mph - N/A   Partly Cloudy
12:54 PM 89.1 °F 95.0 °F 71.1 °F 55% 30.13 in 10.0 mi WSW 9.2 mph - N/A   Partly Cloudy
1:54 PM 91.9 °F 99.5 °F 72.0 °F 52% 30.12 in 10.0 mi WSW 10.4 mph - N/A   Scattered Clouds
2:54 PM 93.0 °F 100.1 °F 71.1 °F 49% 30.10 in 10.0 mi West 10.4 mph 16.1 mph N/A   Partly Cloudy
3:54 PM 93.0 °F 97.9 °F 69.1 °F 45% 30.09 in 10.0 mi West 10.4 mph - N/A   Partly Cloudy
4:54 PM 90.0 °F 95.4 °F 70.0 °F 52% 30.07 in 10.0 mi West 5.8 mph 17.3 mph N/A   Scattered Clouds
5:54 PM 91.0 °F 97.6 °F 71.1 °F 52% 30.06 in 10.0 mi WSW 8.1 mph - N/A   Partly Cloudy
6:54 PM 90.0 °F 95.4 °F 70.0 °F 52% 30.06 in 10.0 mi WSW 6.9 mph - N/A   Partly Cloudy
7:54 PM 88.0 °F 92.9 °F 70.0 °F 55% 30.06 in 10.0 mi SW 9.2 mph - N/A   Clear
8:54 PM 87.1 °F 93.6 °F 72.0 °F 61% 30.06 in 10.0 mi SW 9.2 mph - N/A   Clear
9:54 PM 86.0 °F 92.2 °F 72.0 °F 63% 30.09 in 10.0 mi SW 9.2 mph - N/A   Clear
10:54 PM 84.9 °F 90.7 °F 72.0 °F 65% 30.10 in 10.0 mi WSW 11.5 mph 20.7 mph N/A   Clear
11:54 PM 84.0 °F 89.6 °F 72.0 °F 67% 30.10 in 10.0 mi WSW 10.4 mph - N/A   Clear